Time,TemperatureF,DewpointF,PressureIn,WindDirection,WindDirectionDegrees,WindSpeedMPH,WindSpeedGustMPH,Humidity,HourlyPrecipIn,Conditions,Clouds,dailyrainin,SoftwareType,DateUTC
2013-05-11 00:03:00,57.9,23.3,30.30,SE,133,8.1,8.1,26,0.00,,SKC,0.00,VWS V14.01,2013-05-11 07:03:00,
2013-05-11 00:08:00,57.9,23.3,30.33,SSE,151,5.8,7.6,26,0.00,,SKC,0.00,VWS V14.01,2013-05-11 07:08:00,
2013-05-11 00:13:00,57.7,23.1,30.33,SE,144,6.3,7.6,26,0.00,,SKC,0.00,VWS V14.01,2013-05-11 07:13:00,
2013-05-11 00:18:00,57.9,23.3,30.33,SE,142,5.8,7.2,26,0.00,,SKC,0.00,VWS V14.01,2013-05-11 07:18:00,
2013-05-11 00:23:00,57.7,23.1,30.30,SE,141,6.3,6.3,26,0.00,,SKC,0.00,VWS V14.01,2013-05-11 07:23:00,
2013-05-11 00:28:00,57.6,23.0,30.30,SE,146,5.8,6.3,26,0.00,,SKC,0.00,VWS V14.01,2013-05-11 07:28:00,
2013-05-11 00:33:00,58.5,22.8,30.30,SSE,153,5.4,6.3,25,0.00,,SKC,0.00,VWS V14.01,2013-05-11 07:33:00,
2013-05-11 00:38:00,59.4,23.6,30.33,SE,129,5.8,5.8,25,0.00,,SKC,0.00,VWS V14.01,2013-05-11 07:38:00,
2013-05-11 00:43:00,59.2,23.4,30.33,SE,124,5.8,5.8,25,0.00,,SKC,0.00,VWS V14.01,2013-05-11 07:43:00,
2013-05-11 00:48:00,58.5,22.8,30.33,SE,130,3.6,4.0,25,0.00,,SKC,0.00,VWS V14.01,2013-05-11 07:48:00,
2013-05-11 00:53:00,57.7,22.2,30.33,ESE,119,3.6,4.9,25,0.00,,SKC,0.00,VWS V14.01,2013-05-11 07:53:00,
2013-05-11 00:58:00,57.4,21.9,30.33,ESE,119,5.8,5.8,25,0.00,,SKC,0.00,VWS V14.01,2013-05-11 07:58:00,
2013-05-11 01:03:00,57.0,22.5,30.33,SE,127,4.5,5.4,26,0.00,,SKC,0.00,VWS V14.01,2013-05-11 08:03:00,
2013-05-11 01:08:00,57.2,21.7,30.33,SE,133,6.3,6.3,25,0.00,,SKC,0.00,VWS V14.01,2013-05-11 08:08:00,
2013-05-11 01:13:00,57.2,21.7,30.33,SE,138,5.8,5.8,25,0.00,,SKC,0.00,VWS V14.01,2013-05-11 08:13:00,
2013-05-11 01:18:00,57.0,22.5,30.33,SE,138,5.8,5.8,26,0.00,,SKC,0.00,VWS V14.01,2013-05-11 08:18:00,
2013-05-11 01:23:00,56.7,22.2,30.33,SE,126,2.7,3.1,26,0.00,,SKC,0.00,VWS V14.01,2013-05-11 08:23:00,
2013-05-11 01:28:00,55.9,21.6,30.33,SE,126,0.0,0.0,26,0.00,,SKC,0.00,VWS V14.01,2013-05-11 08:28:00,
2013-05-11 01:33:00,55.0,21.7,30.33,SE,133,3.1,3.1,27,0.00,,SKC,0.00,VWS V14.01,2013-05-11 08:33:00,
2013-05-11 01:38:00,54.9,21.5,30.33,SE,140,3.1,3.1,27,0.00,,SKC,0.00,VWS V14.01,2013-05-11 08:38:00,
2013-05-11 01:43:00,55.0,21.7,30.33,South,186,3.6,6.3,27,0.00,,SKC,0.00,VWS V14.01,2013-05-11 08:43:00,
2013-05-11 01:48:00,55.2,21.8,30.33,SSE,156,5.8,5.8,27,0.00,,SKC,0.00,VWS V14.01,2013-05-11 08:48:00,
2013-05-11 01:53:00,55.6,21.3,30.33,SE,142,0.0,2.2,26,0.00,,SKC,0.00,VWS V14.01,2013-05-11 08:53:00,
2013-05-11 01:58:00,55.9,21.6,30.33,ESE,118,3.1,4.0,26,0.00,,SKC,0.00,VWS V14.01,2013-05-11 08:58:00,
2013-05-11 02:03:00,55.9,21.6,30.33,South,180,4.9,4.9,26,0.00,,SKC,0.00,VWS V14.01,2013-05-11 09:03:00,
2013-05-11 02:08:00,55.6,21.3,30.33,SE,138,4.0,6.3,26,0.00,,SKC,0.00,VWS V14.01,2013-05-11 09:08:00,
2013-05-11 02:13:00,55.2,21.8,30.33,SE,143,3.6,3.6,27,0.00,,SKC,0.00,VWS V14.01,2013-05-11 09:13:00,
2013-05-11 02:18:00,54.9,21.5,30.33,SE,144,3.1,3.1,27,0.00,,SKC,0.00,VWS V14.01,2013-05-11 09:18:00,
2013-05-11 02:23:00,54.7,21.4,30.33,ESE,120,2.2,2.7,27,0.00,,SKC,0.00,VWS V14.01,2013-05-11 09:23:00,
2013-05-11 02:28:00,54.5,21.2,30.33,ESE,116,3.1,3.1,27,0.00,,SKC,0.00,VWS V14.01,2013-05-11 09:28:00,
2013-05-11 02:33:00,54.3,21.1,30.33,ESE,116,2.7,2.7,27,0.00,,SKC,0.00,VWS V14.01,2013-05-11 09:33:00,
2013-05-11 02:38:00,54.0,20.8,30.30,SSE,157,5.4,5.4,27,0.00,,SKC,0.00,VWS V14.01,2013-05-11 09:38:00,
2013-05-11 02:43:00,53.8,21.5,30.30,SSE,150,6.3,7.2,28,0.00,,SKC,0.00,VWS V14.01,2013-05-11 09:43:00,
2013-05-11 02:48:00,53.6,21.3,30.30,ESE,117,4.0,4.9,28,0.00,,SKC,0.00,VWS V14.01,2013-05-11 09:48:00,
2013-05-11 02:53:00,53.6,21.3,30.30,ESE,108,2.7,3.1,28,0.00,,SKC,0.00,VWS V14.01,2013-05-11 09:53:00,
2013-05-11 02:58:00,53.2,21.0,30.30,SE,128,5.4,5.4,28,0.00,,SKC,0.00,VWS V14.01,2013-05-11 09:58:00,
2013-05-11 03:03:00,53.2,21.0,30.30,SE,127,4.5,4.5,28,0.00,,SKC,0.00,VWS V14.01,2013-05-11 10:03:00,
2013-05-11 03:08:00,53.1,20.8,30.30,SE,130,5.4,5.4,28,0.00,,SKC,0.00,VWS V14.01,2013-05-11 10:08:00,
2013-05-11 03:13:00,53.1,20.8,30.30,ESE,116,3.1,3.1,28,0.00,,SKC,0.00,VWS V14.01,2013-05-11 10:13:00,
2013-05-11 03:18:00,53.1,20.8,30.30,SE,126,4.9,5.4,28,0.00,,SKC,0.00,VWS V14.01,2013-05-11 10:18:00,
2013-05-11 03:23:00,53.1,20.8,30.30,SSE,149,3.6,6.3,28,0.00,,SKC,0.00,VWS V14.01,2013-05-11 10:23:00,
2013-05-11 03:28:00,53.2,21.0,30.30,SE,130,6.3,6.3,28,0.00,,SKC,0.00,VWS V14.01,2013-05-11 10:28:00,
2013-05-11 03:33:00,53.4,21.1,30.30,SE,140,0.0,0.0,28,0.00,,SKC,0.00,VWS V14.01,2013-05-11 10:33:00,
2013-05-11 03:38:00,53.1,20.8,30.30,SSE,159,0.0,0.0,28,0.00,,SKC,0.00,VWS V14.01,2013-05-11 10:38:00,
2013-05-11 03:43:00,52.7,21.4,30.30,SE,145,3.6,3.6,29,0.00,,SKC,0.00,VWS V14.01,2013-05-11 10:43:00,
2013-05-11 03:48:00,53.1,21.7,30.30,SSE,147,5.8,5.8,29,0.00,,SKC,0.00,VWS V14.01,2013-05-11 10:48:00,
2013-05-11 03:53:00,53.8,21.5,30.30,SE,143,5.8,5.8,28,0.00,,SKC,0.00,VWS V14.01,2013-05-11 10:53:00,
2013-05-11 03:58:00,54.3,21.1,30.30,SE,139,5.4,5.4,27,0.00,,SKC,0.00,VWS V14.01,2013-05-11 10:58:00,
2013-05-11 04:03:00,54.5,21.2,30.30,ESE,115,3.6,5.8,27,0.00,,SKC,0.00,VWS V14.01,2013-05-11 11:03:00,
2013-05-11 04:08:00,54.1,20.9,30.30,ESE,116,7.2,7.6,27,0.00,,SKC,0.00,VWS V14.01,2013-05-11 11:08:00,
2013-05-11 04:13:00,55.0,21.7,30.30,SE,137,8.1,11.0,27,0.00,,SKC,0.00,VWS V14.01,2013-05-11 11:13:00,
2013-05-11 04:18:00,55.6,21.3,30.30,SE,143,7.6,7.6,26,0.00,,SKC,0.00,VWS V14.01,2013-05-11 11:18:00,
2013-05-11 04:23:00,55.4,21.1,30.30,South,171,5.8,8.1,26,0.00,,SKC,0.00,VWS V14.01,2013-05-11 11:23:00,
2013-05-11 04:28:00,55.0,20.8,30.30,SSE,155,2.2,2.7,26,0.00,,SKC,0.00,VWS V14.01,2013-05-11 11:28:00,
2013-05-11 04:33:00,54.3,21.1,30.30,SE,125,6.3,6.3,27,0.00,,SKC,0.00,VWS V14.01,2013-05-11 11:33:00,
2013-05-11 04:38:00,53.6,20.5,30.30,ESE,121,5.4,5.4,27,0.00,,SKC,0.00,VWS V14.01,2013-05-11 11:38:00,
2013-05-11 04:43:00,52.7,20.5,30.30,SE,132,5.8,5.8,28,0.00,,SKC,0.00,VWS V14.01,2013-05-11 11:43:00,
2013-05-11 04:48:00,52.2,20.9,30.30,SE,132,4.9,6.3,29,0.00,,SKC,0.00,VWS V14.01,2013-05-11 11:48:00,
2013-05-11 04:53:00,52.2,20.9,30.30,SE,133,5.4,6.3,29,0.00,,SKC,0.00,VWS V14.01,2013-05-11 11:53:00,
2013-05-11 04:58:00,52.2,20.9,30.30,SE,140,5.8,6.3,29,0.00,,SKC,0.00,VWS V14.01,2013-05-11 11:58:00,
2013-05-11 05:03:00,51.6,21.2,30.30,SE,134,6.7,6.7,30,0.00,,SKC,0.00,VWS V14.01,2013-05-11 12:03:00,
2013-05-11 05:08:00,51.3,21.7,30.30,SE,139,7.6,7.6,31,0.00,,SKC,0.00,VWS V14.01,2013-05-11 12:08:00,
2013-05-11 05:13:00,50.9,22.1,30.30,SE,143,5.8,5.8,32,0.00,,SKC,0.00,VWS V14.01,2013-05-11 12:13:00,
2013-05-11 05:18:00,50.5,22.5,30.30,SE,145,5.8,5.8,33,0.00,,SKC,0.00,VWS V14.01,2013-05-11 12:18:00,
2013-05-11 05:23:00,50.5,22.5,30.30,SSE,147,8.7,8.7,33,0.00,,SKC,0.00,VWS V14.01,2013-05-11 12:23:00,
2013-05-11 05:28:00,50.7,22.7,30.30,SSE,155,8.3,8.3,33,0.00,,SKC,0.00,VWS V14.01,2013-05-11 12:28:00,
2013-05-11 05:33:00,50.9,22.8,30.30,SSE,151,7.6,8.1,33,0.00,,SKC,0.00,VWS V14.01,2013-05-11 12:33:00,
2013-05-11 05:38:00,50.9,22.8,30.27,SSE,150,7.2,8.1,33,0.00,,SKC,0.00,VWS V14.01,2013-05-11 12:38:00,
2013-05-11 05:43:00,50.9,23.5,30.27,SE,130,7.6,8.1,34,0.00,,SKC,0.00,VWS V14.01,2013-05-11 12:43:00,
2013-05-11 05:48:00,50.7,23.4,30.27,SE,128,6.3,6.3,34,0.00,,SKC,0.00,VWS V14.01,2013-05-11 12:48:00,
2013-05-11 05:53:00,50.7,23.4,30.30,SE,138,6.3,8.1,34,0.00,,SKC,0.00,VWS V14.01,2013-05-11 12:53:00,
2013-05-11 05:58:00,50.7,23.4,30.30,SSE,158,5.8,6.3,34,0.00,,SKC,0.00,VWS V14.01,2013-05-11 12:58:00,
2013-05-11 06:03:00,50.7,24.1,30.30,SSE,149,4.0,7.6,35,0.00,,SKC,0.00,VWS V14.01,2013-05-11 13:03:00,
2013-05-11 06:08:00,50.4,24.4,30.30,SE,131,6.3,6.3,36,0.00,,SKC,0.00,VWS V14.01,2013-05-11 13:08:00,
2013-05-11 06:13:00,50.2,24.3,30.30,SE,138,6.3,7.6,36,0.00,,SKC,0.00,VWS V14.01,2013-05-11 13:13:00,
2013-05-11 06:18:00,50.5,24.6,30.30,ESE,121,6.3,6.3,36,0.00,,SKC,0.00,VWS V14.01,2013-05-11 13:18:00,
2013-05-11 06:23:00,51.3,24.6,30.30,SE,135,5.4,5.4,35,0.00,,SKC,0.00,VWS V14.01,2013-05-11 13:23:00,
2013-05-11 06:28:00,51.6,24.2,30.30,SE,146,6.3,7.2,34,0.00,,SKC,0.00,VWS V14.01,2013-05-11 13:28:00,
2013-05-11 06:33:00,52.0,23.8,30.30,ESE,123,6.3,6.3,33,0.00,,SKC,0.00,VWS V14.01,2013-05-11 13:33:00,
2013-05-11 06:38:00,52.3,24.1,30.30,SE,135,5.4,5.4,33,0.00,,SKC,0.00,VWS V14.01,2013-05-11 13:38:00,
2013-05-11 06:43:00,53.1,24.0,30.30,ESE,121,6.3,6.3,32,0.00,,SKC,0.00,VWS V14.01,2013-05-11 13:43:00,
2013-05-11 06:48:00,53.6,23.7,30.30,ESE,110,4.5,7.2,31,0.00,,SKC,0.00,VWS V14.01,2013-05-11 13:48:00,
2013-05-11 06:53:00,54.1,24.2,30.30,SE,145,5.4,6.3,31,0.00,,SKC,0.00,VWS V14.01,2013-05-11 13:53:00,
2013-05-11 06:58:00,54.5,23.7,30.30,SSE,157,3.6,4.0,30,0.00,,SKC,0.00,VWS V14.01,2013-05-11 13:58:00,
2013-05-11 07:03:00,55.4,23.7,30.30,SSE,152,5.8,5.8,29,0.00,,SKC,0.00,VWS V14.01,2013-05-11 14:03:00,
2013-05-11 07:08:00,56.3,24.5,30.30,SSE,154,5.8,5.8,29,0.00,,SKC,0.00,VWS V14.01,2013-05-11 14:08:00,
2013-05-11 07:13:00,57.0,24.3,30.30,SE,145,3.6,4.0,28,0.00,,SKC,0.00,VWS V14.01,2013-05-11 14:13:00,
2013-05-11 07:18:00,58.1,25.2,30.30,SE,138,4.0,5.8,28,0.00,,SKC,0.00,VWS V14.01,2013-05-11 14:18:00,
2013-05-11 07:23:00,58.3,24.5,30.30,SE,137,7.6,7.6,27,0.00,,SKC,0.00,VWS V14.01,2013-05-11 14:23:00,
2013-05-11 07:28:00,58.8,24.0,30.30,ESE,120,3.6,5.8,26,0.00,,SKC,0.00,VWS V14.01,2013-05-11 14:28:00,
2013-05-11 07:33:00,59.7,24.8,30.30,SSE,148,4.0,5.8,26,0.00,,SKC,0.00,VWS V14.01,2013-05-11 14:33:00,
2013-05-11 07:38:00,60.6,24.6,30.30,ESE,120,5.4,5.4,25,0.00,,SKC,0.00,VWS V14.01,2013-05-11 14:38:00,
2013-05-11 07:43:00,61.5,25.4,30.30,SSE,155,0.0,0.0,25,0.00,,SKC,0.00,VWS V14.01,2013-05-11 14:43:00,
2013-05-11 07:48:00,62.1,25.9,30.30,SE,143,0.0,0.0,25,0.00,,SKC,0.00,VWS V14.01,2013-05-11 14:48:00,
2013-05-11 07:53:00,63.0,27.6,30.30,SSE,166,0.0,0.0,26,0.00,,SKC,0.00,VWS V14.01,2013-05-11 14:53:00,
2013-05-11 07:58:00,64.0,28.5,30.30,WSW,241,0.0,0.0,26,0.00,,SKC,0.00,VWS V14.01,2013-05-11 14:58:00,
2013-05-11 08:03:00,64.0,28.5,30.30,WSW,242,0.0,0.0,26,0.00,,SKC,0.00,VWS V14.01,2013-05-11 15:03:00,
2013-05-11 08:08:00,64.4,31.5,30.33,WNW,295,0.0,0.0,29,0.00,,SKC,0.00,VWS V14.01,2013-05-11 15:08:00,
2013-05-11 08:13:00,64.6,29.0,30.33,NW,304,0.0,0.0,26,0.00,,SKC,0.00,VWS V14.01,2013-05-11 15:13:00,
2013-05-11 08:18:00,65.1,32.1,30.33,West,272,0.0,0.0,29,0.00,,SKC,0.00,VWS V14.01,2013-05-11 15:18:00,
2013-05-11 08:23:00,64.9,31.1,30.33,West,278,3.6,3.6,28,0.00,,SKC,0.00,VWS V14.01,2013-05-11 15:23:00,
2013-05-11 08:28:00,65.1,30.3,30.33,West,280,0.0,4.0,27,0.00,,SKC,0.00,VWS V14.01,2013-05-11 15:28:00,
2013-05-11 08:33:00,65.3,30.5,30.33,WNW,302,0.0,0.0,27,0.00,,SKC,0.00,VWS V14.01,2013-05-11 15:33:00,
2013-05-11 08:38:00,65.8,31.0,30.30,WNW,297,0.0,0.0,27,0.00,,SKC,0.00,VWS V14.01,2013-05-11 15:38:00,
2013-05-11 08:43:00,65.7,31.7,30.30,NW,308,0.0,0.0,28,0.00,,SKC,0.00,VWS V14.01,2013-05-11 15:43:00,
2013-05-11 08:48:00,66.2,30.3,30.30,West,278,0.0,0.0,26,0.00,,SKC,0.00,VWS V14.01,2013-05-11 15:48:00,
2013-05-11 08:53:00,66.7,30.8,30.33,WNW,300,0.0,0.0,26,0.00,,SKC,0.00,VWS V14.01,2013-05-11 15:53:00,
2013-05-11 08:58:00,67.1,29.1,30.33,WNW,298,0.0,0.0,24,0.00,,SKC,0.00,VWS V14.01,2013-05-11 15:58:00,
2013-05-11 09:03:00,68.2,32.0,30.33,WNW,295,0.0,0.0,26,0.00,,SKC,0.00,VWS V14.01,2013-05-11 16:03:00,
2013-05-11 09:08:00,69.3,29.9,30.33,WNW,299,0.0,0.0,23,0.00,,SKC,0.00,VWS V14.01,2013-05-11 16:08:00,
2013-05-11 09:13:00,69.6,32.3,30.33,West,263,0.0,0.0,25,0.00,,SKC,0.00,VWS V14.01,2013-05-11 16:13:00,
2013-05-11 09:18:00,70.0,30.5,30.33,WNW,284,2.2,4.0,23,0.00,,SKC,0.00,VWS V14.01,2013-05-11 16:18:00,
2013-05-11 09:23:00,69.6,31.3,30.33,WNW,295,0.0,0.0,24,0.00,,SKC,0.00,VWS V14.01,2013-05-11 16:23:00,
2013-05-11 09:28:00,70.0,30.5,30.33,NW,324,0.0,0.0,23,0.00,,SKC,0.00,VWS V14.01,2013-05-11 16:28:00,
2013-05-11 09:33:00,70.3,29.7,30.33,WNW,302,0.0,0.0,22,0.00,,SKC,0.00,VWS V14.01,2013-05-11 16:33:00,
2013-05-11 09:38:00,70.7,30.0,30.33,WNW,291,0.0,0.0,22,0.00,,SKC,0.00,VWS V14.01,2013-05-11 16:38:00,
2013-05-11 09:43:00,70.9,30.2,30.33,West,275,0.0,0.0,22,0.00,,SKC,0.00,VWS V14.01,2013-05-11 16:43:00,
2013-05-11 09:48:00,71.6,30.8,30.33,NNW,331,3.6,4.0,22,0.00,,SKC,0.00,VWS V14.01,2013-05-11 16:48:00,
2013-05-11 09:53:00,72.0,29.9,30.33,NNW,335,0.0,0.0,21,0.00,,SKC,0.00,VWS V14.01,2013-05-11 16:53:00,
2013-05-11 09:58:00,72.5,31.5,30.33,North,353,0.0,0.0,22,0.00,,SKC,0.00,VWS V14.01,2013-05-11 16:58:00,
2013-05-11 10:03:00,73.6,31.3,30.33,WNW,302,3.1,3.1,21,0.00,,SKC,0.00,VWS V14.01,2013-05-11 17:03:00,
2013-05-11 10:08:00,74.3,31.9,30.30,NW,314,0.0,2.7,21,0.00,,SKC,0.00,VWS V14.01,2013-05-11 17:08:00,
2013-05-11 10:13:00,74.7,32.2,30.30,West,264,0.0,3.6,21,0.00,,SKC,0.00,VWS V14.01,2013-05-11 17:13:00,
2013-05-11 10:18:00,75.0,32.5,30.30,NW,305,2.2,3.1,21,0.00,,SKC,0.00,VWS V14.01,2013-05-11 17:18:00,
2013-05-11 10:23:00,75.2,31.4,30.33,West,280,2.2,3.6,20,0.00,,SKC,0.00,VWS V14.01,2013-05-11 17:23:00,
2013-05-11 10:28:00,75.2,32.6,30.33,West,279,5.8,5.8,21,0.00,,SKC,0.00,VWS V14.01,2013-05-11 17:28:00,
2013-05-11 10:33:00,75.6,31.7,30.33,WSW,253,3.1,3.1,20,0.00,,SKC,0.00,VWS V14.01,2013-05-11 17:33:00,
2013-05-11 10:38:00,75.6,31.7,30.33,West,277,3.1,4.9,20,0.00,,SKC,0.00,VWS V14.01,2013-05-11 17:38:00,
2013-05-11 10:43:00,75.2,32.6,30.33,WNW,290,3.6,3.6,21,0.00,,SKC,0.00,VWS V14.01,2013-05-11 17:43:00,
2013-05-11 10:48:00,75.7,33.1,30.33,West,274,3.1,3.1,21,0.00,,SKC,0.00,VWS V14.01,2013-05-11 17:48:00,
2013-05-11 10:53:00,75.7,29.3,30.33,West,275,4.0,4.9,18,0.00,,SKC,0.00,VWS V14.01,2013-05-11 17:53:00,
2013-05-11 10:58:00,75.9,29.4,30.33,WSW,243,2.7,4.0,18,0.00,,SKC,0.00,VWS V14.01,2013-05-11 17:58:00,
2013-05-11 11:03:00,75.9,29.4,30.33,West,274,3.1,4.0,18,0.00,,SKC,0.00,VWS V14.01,2013-05-11 18:03:00,
2013-05-11 11:08:00,75.9,29.4,30.33,West,267,4.0,4.5,18,0.00,,SKC,0.00,VWS V14.01,2013-05-11 18:08:00,
2013-05-11 11:13:00,76.8,32.8,30.33,West,263,4.5,5.4,20,0.00,,SKC,0.00,VWS V14.01,2013-05-11 18:13:00,
2013-05-11 11:18:00,76.6,30.0,30.33,West,275,3.1,5.8,18,0.00,,SKC,0.00,VWS V14.01,2013-05-11 18:18:00,
2013-05-11 11:23:00,76.3,32.3,30.33,West,267,2.2,2.7,20,0.00,,SKC,0.00,VWS V14.01,2013-05-11 18:23:00,
2013-05-11 11:28:00,76.8,32.8,30.33,West,277,2.7,2.7,20,0.00,,SKC,0.00,VWS V14.01,2013-05-11 18:28:00,
2013-05-11 11:33:00,77.4,33.2,30.33,West,275,5.4,5.4,20,0.00,,SKC,0.00,VWS V14.01,2013-05-11 18:33:00,
2013-05-11 11:38:00,77.7,33.5,30.33,WSW,251,2.2,3.1,20,0.00,,SKC,0.00,VWS V14.01,2013-05-11 18:38:00,
2013-05-11 11:43:00,77.9,31.0,30.33,NW,310,6.3,6.3,18,0.00,,SKC,0.00,VWS V14.01,2013-05-11 18:43:00,
2013-05-11 11:48:00,78.3,31.3,30.33,West,265,5.8,5.8,18,0.00,,SKC,0.00,VWS V14.01,2013-05-11 18:48:00,
2013-05-11 11:53:00,78.3,31.3,30.30,WNW,295,7.6,7.6,18,0.00,,SKC,0.00,VWS V14.01,2013-05-11 18:53:00,
2013-05-11 11:58:00,79.3,30.8,30.30,NNW,343,4.9,5.4,17,0.00,,SKC,0.00,VWS V14.01,2013-05-11 18:58:00,
2013-05-11 12:03:00,80.2,31.5,30.30,West,277,5.4,5.4,17,0.00,,SKC,0.00,VWS V14.01,2013-05-11 19:03:00,
2013-05-11 12:08:00,80.6,31.8,30.30,WSW,251,4.0,5.8,17,0.00,,SKC,0.00,VWS V14.01,2013-05-11 19:08:00,
2013-05-11 12:13:00,80.4,31.7,30.30,WNW,293,0.0,0.0,17,0.00,,SKC,0.00,VWS V14.01,2013-05-11 19:13:00,
2013-05-11 12:18:00,80.6,31.8,30.30,WSW,258,3.6,3.6,17,0.00,,SKC,0.00,VWS V14.01,2013-05-11 19:18:00,
2013-05-11 12:23:00,80.8,32.0,30.33,SW,226,0.0,0.0,17,0.00,,SKC,0.00,VWS V14.01,2013-05-11 19:23:00,
2013-05-11 12:28:00,81.0,27.3,30.33,West,278,2.7,3.6,14,0.00,,SKC,0.00,VWS V14.01,2013-05-11 19:28:00,
2013-05-11 12:33:00,81.0,27.3,30.33,SW,227,0.0,0.0,14,0.00,,SKC,0.00,VWS V14.01,2013-05-11 19:33:00,
2013-05-11 12:38:00,81.3,27.6,30.30,SSW,206,2.7,2.7,14,0.00,,SKC,0.00,VWS V14.01,2013-05-11 19:38:00,
2013-05-11 12:43:00,81.3,27.6,30.30,SW,234,2.2,3.6,14,0.00,,SKC,0.00,VWS V14.01,2013-05-11 19:43:00,
2013-05-11 12:48:00,81.9,28.0,30.30,West,269,0.0,0.0,14,0.00,,SKC,0.00,VWS V14.01,2013-05-11 19:48:00,
2013-05-11 12:53:00,82.0,28.2,30.30,WNW,301,6.3,7.2,14,0.00,,SKC,0.00,VWS V14.01,2013-05-11 19:53:00,
2013-05-11 12:58:00,82.0,28.2,30.30,North,353,3.6,3.6,14,0.00,,SKC,0.00,VWS V14.01,2013-05-11 19:58:00,
2013-05-11 13:03:00,82.6,28.6,30.30,SSW,208,0.0,0.0,14,0.00,,SKC,0.00,VWS V14.01,2013-05-11 20:03:00,
2013-05-11 13:08:00,82.9,28.9,30.30,SW,229,3.6,4.0,14,0.00,,SKC,0.00,VWS V14.01,2013-05-11 20:08:00,
2013-05-11 13:13:00,83.3,29.2,30.30,ENE,68,0.0,0.0,14,0.00,,SKC,0.00,VWS V14.01,2013-05-11 20:13:00,
2013-05-11 13:18:00,83.7,29.5,30.30,WNW,299,8.7,8.7,14,0.00,,SKC,0.00,VWS V14.01,2013-05-11 20:18:00,
2013-05-11 13:23:00,83.3,29.2,30.30,NW,319,4.0,4.0,14,0.00,,SKC,0.00,VWS V14.01,2013-05-11 20:23:00,
2013-05-11 13:28:00,83.1,29.0,30.30,West,273,2.7,4.9,14,0.00,,SKC,0.00,VWS V14.01,2013-05-11 20:28:00,
2013-05-11 13:33:00,82.9,28.9,30.30,West,262,5.4,5.4,14,0.00,,SKC,0.00,VWS V14.01,2013-05-11 20:33:00,
2013-05-11 13:38:00,83.1,29.0,30.30,WNW,284,7.6,7.6,14,0.00,,SKC,0.00,VWS V14.01,2013-05-11 20:38:00,
2013-05-11 13:43:00,83.7,29.5,30.30,North,1,5.4,5.4,14,0.00,,SKC,0.00,VWS V14.01,2013-05-11 20:43:00,
2013-05-11 13:48:00,83.8,29.6,30.30,West,279,3.1,4.9,14,0.00,,SKC,0.00,VWS V14.01,2013-05-11 20:48:00,
2013-05-11 13:53:00,84.2,28.1,30.30,WNW,303,0.0,0.0,13,0.00,,SKC,0.00,VWS V14.01,2013-05-11 20:53:00,
2013-05-11 13:58:00,84.6,28.4,30.30,WNW,294,5.4,5.4,13,0.00,,SKC,0.00,VWS V14.01,2013-05-11 20:58:00,
2013-05-11 14:03:00,84.6,28.4,30.30,North,353,3.6,4.0,13,0.00,,SKC,0.00,VWS V14.01,2013-05-11 21:03:00,
2013-05-11 14:08:00,84.7,28.5,30.30,NW,319,5.4,5.4,13,0.00,,SKC,0.00,VWS V14.01,2013-05-11 21:08:00,
2013-05-11 14:13:00,84.9,28.6,30.30,WSW,248,5.4,5.8,13,0.00,,SKC,0.00,VWS V14.01,2013-05-11 21:13:00,
2013-05-11 14:18:00,85.1,28.8,30.30,WNW,298,8.1,8.1,13,0.00,,SKC,0.00,VWS V14.01,2013-05-11 21:18:00,
2013-05-11 14:23:00,84.9,28.6,30.30,NW,324,5.8,5.8,13,0.00,,SKC,0.00,VWS V14.01,2013-05-11 21:23:00,
2013-05-11 14:28:00,84.9,28.6,30.30,West,266,4.0,7.6,13,0.00,,SKC,0.00,VWS V14.01,2013-05-11 21:28:00,
2013-05-11 14:33:00,85.1,28.8,30.30,WNW,298,6.3,6.3,13,0.00,,SKC,0.00,VWS V14.01,2013-05-11 21:33:00,
2013-05-11 14:38:00,85.5,29.1,30.30,West,265,0.0,0.0,13,0.00,,SKC,0.00,VWS V14.01,2013-05-11 21:38:00,
2013-05-11 14:43:00,85.3,28.9,30.30,SSW,207,3.1,3.1,13,0.00,,SKC,0.00,VWS V14.01,2013-05-11 21:43:00,
2013-05-11 14:48:00,85.5,29.1,30.30,South,184,6.3,6.3,13,0.00,,SKC,0.00,VWS V14.01,2013-05-11 21:48:00,
2013-05-11 14:53:00,85.1,28.8,30.30,SSE,159,4.9,4.9,13,0.00,,SKC,0.00,VWS V14.01,2013-05-11 21:53:00,
2013-05-11 14:58:00,85.6,29.2,30.30,NNE,20,3.1,3.1,13,0.00,,SKC,0.00,VWS V14.01,2013-05-11 21:58:00,
2013-05-11 15:03:00,85.1,28.8,30.30,ESE,104,5.8,5.8,13,0.00,,SKC,0.00,VWS V14.01,2013-05-11 22:03:00,
2013-05-11 15:08:00,84.6,28.4,30.30,SE,124,0.0,2.7,13,0.00,,SKC,0.00,VWS V14.01,2013-05-11 22:08:00,
2013-05-11 15:13:00,85.1,28.8,30.30,NW,323,5.4,6.3,13,0.00,,SKC,0.00,VWS V14.01,2013-05-11 22:13:00,
2013-05-11 15:18:00,85.6,29.2,30.30,WNW,294,7.6,8.1,13,0.00,,SKC,0.00,VWS V14.01,2013-05-11 22:18:00,
2013-05-11 15:23:00,85.6,29.2,30.30,West,266,4.5,8.1,13,0.00,,SKC,0.00,VWS V14.01,2013-05-11 22:23:00,
2013-05-11 15:28:00,85.8,29.4,30.30,WNW,298,5.8,5.8,13,0.00,,SKC,0.00,VWS V14.01,2013-05-11 22:28:00,
2013-05-11 15:33:00,86.2,29.6,30.30,NW,312,5.8,5.8,13,0.00,,SKC,0.00,VWS V14.01,2013-05-11 22:33:00,
2013-05-11 15:38:00,86.4,29.8,30.30,North,5,4.0,4.0,13,0.00,,SKC,0.00,VWS V14.01,2013-05-11 22:38:00,
2013-05-11 15:43:00,86.2,29.6,30.30,NNW,335,5.8,5.8,13,0.00,,SKC,0.00,VWS V14.01,2013-05-11 22:43:00,
2013-05-11 15:48:00,86.0,29.5,30.30,WNW,292,8.7,8.7,13,0.00,,SKC,0.00,VWS V14.01,2013-05-11 22:48:00,
2013-05-11 15:53:00,85.8,29.4,30.30,WNW,294,3.1,7.6,13,0.00,,SKC,0.00,VWS V14.01,2013-05-11 22:53:00,
2013-05-11 15:58:00,85.3,28.9,30.30,NNW,334,5.8,6.3,13,0.00,,SKC,0.00,VWS V14.01,2013-05-11 22:58:00,
2013-05-11 16:03:00,85.3,28.9,30.30,WNW,287,8.1,8.3,13,0.00,,SKC,0.00,VWS V14.01,2013-05-11 23:03:00,
2013-05-11 16:08:00,85.3,28.9,30.30,WNW,298,4.0,4.0,13,0.00,,SKC,0.00,VWS V14.01,2013-05-11 23:08:00,
2013-05-11 16:13:00,84.9,28.6,30.30,WNW,287,10.1,10.1,13,0.00,,SKC,0.00,VWS V14.01,2013-05-11 23:13:00,
2013-05-11 16:18:00,85.1,28.8,30.30,West,262,5.8,8.3,13,0.00,,SKC,0.00,VWS V14.01,2013-05-11 23:18:00,
2013-05-11 16:23:00,85.1,28.8,30.30,WNW,289,6.3,11.0,13,0.00,,SKC,0.00,VWS V14.01,2013-05-11 23:23:00,
2013-05-11 16:28:00,84.7,28.5,30.30,NNW,337,3.6,8.1,13,0.00,,SKC,0.00,VWS V14.01,2013-05-11 23:28:00,
2013-05-11 16:33:00,84.9,28.6,30.30,NW,304,9.2,11.0,13,0.00,,SKC,0.00,VWS V14.01,2013-05-11 23:33:00,
2013-05-11 16:38:00,84.4,28.2,30.30,West,277,8.1,8.1,13,0.00,,SKC,0.00,VWS V14.01,2013-05-11 23:38:00,
2013-05-11 16:43:00,84.6,28.4,30.30,WNW,295,8.1,8.1,13,0.00,,SKC,0.00,VWS V14.01,2013-05-11 23:43:00,
2013-05-11 16:48:00,84.9,28.6,30.30,WNW,286,6.3,8.7,13,0.00,,SKC,0.00,VWS V14.01,2013-05-11 23:48:00,
2013-05-11 16:53:00,84.7,28.5,30.30,NW,307,5.8,10.1,13,0.00,,SKC,0.00,VWS V14.01,2013-05-11 23:53:00,
2013-05-11 16:58:00,84.6,28.4,30.30,NNW,337,10.1,10.1,13,0.00,,SKC,0.00,VWS V14.01,2013-05-11 23:58:00,
2013-05-11 17:03:00,84.7,28.5,30.30,WNW,293,11.0,13.6,13,0.00,,SKC,0.00,VWS V14.01,2013-05-12 00:03:00,
2013-05-11 17:08:00,83.3,29.2,30.30,West,266,15.0,15.0,14,0.00,,SKC,0.00,VWS V14.01,2013-05-12 00:08:00,
2013-05-11 17:13:00,81.7,27.9,30.30,West,270,7.6,16.8,14,0.00,,SKC,0.00,VWS V14.01,2013-05-12 00:13:00,
2013-05-11 17:18:00,81.7,27.9,30.30,WNW,296,12.3,14.5,14,0.00,,SKC,0.00,VWS V14.01,2013-05-12 00:18:00,
2013-05-11 17:23:00,81.3,27.6,30.30,WNW,287,6.7,11.4,14,0.00,,SKC,0.00,VWS V14.01,2013-05-12 00:23:00,
2013-05-11 17:28:00,81.0,27.3,30.30,West,280,5.8,8.7,14,0.00,,SKC,0.00,VWS V14.01,2013-05-12 00:28:00,
2013-05-11 17:33:00,80.1,28.3,30.30,West,266,5.8,15.4,15,0.00,,SKC,0.00,VWS V14.01,2013-05-12 00:33:00,
2013-05-11 17:38:00,79.2,27.6,30.30,WNW,301,5.8,8.7,15,0.00,,SKC,0.00,VWS V14.01,2013-05-12 00:38:00,
2013-05-11 17:43:00,78.1,26.7,30.30,WNW,286,8.1,8.1,15,0.00,,SKC,0.00,VWS V14.01,2013-05-12 00:43:00,
2013-05-11 17:48:00,77.2,30.4,30.30,West,266,4.0,7.6,18,0.00,,SKC,0.00,VWS V14.01,2013-05-12 00:48:00,
2013-05-11 17:53:00,76.3,29.7,30.30,WNW,285,7.6,7.6,18,0.00,,SKC,0.00,VWS V14.01,2013-05-12 00:53:00,
2013-05-11 17:58:00,75.4,29.0,30.30,West,278,6.3,8.7,18,0.00,,SKC,0.00,VWS V14.01,2013-05-12 00:58:00,
2013-05-11 18:03:00,75.4,29.0,30.30,NW,311,8.3,8.7,18,0.00,,SKC,0.00,VWS V14.01,2013-05-12 01:03:00,
2013-05-11 18:08:00,75.6,29.1,30.30,West,281,8.1,8.3,18,0.00,,SKC,0.00,VWS V14.01,2013-05-12 01:08:00,
2013-05-11 18:13:00,75.6,29.1,30.30,WNW,303,8.7,10.5,18,0.00,,SKC,0.00,VWS V14.01,2013-05-12 01:13:00,
2013-05-11 18:18:00,75.4,29.0,30.30,WNW,293,5.4,8.1,18,0.00,,SKC,0.00,VWS V14.01,2013-05-12 01:18:00,
2013-05-11 18:23:00,75.4,29.0,30.30,WNW,287,5.8,8.7,18,0.00,,SKC,0.00,VWS V14.01,2013-05-12 01:23:00,
2013-05-11 18:28:00,75.7,29.3,30.30,WNW,283,8.3,8.3,18,0.00,,SKC,0.00,VWS V14.01,2013-05-12 01:28:00,
2013-05-11 18:33:00,75.7,29.3,30.30,NW,309,5.8,6.3,18,0.00,,SKC,0.00,VWS V14.01,2013-05-12 01:33:00,
2013-05-11 18:38:00,75.7,29.3,30.30,NNW,332,4.9,5.8,18,0.00,,SKC,0.00,VWS V14.01,2013-05-12 01:38:00,
2013-05-11 18:43:00,75.6,29.1,30.30,NW,317,5.8,6.3,18,0.00,,SKC,0.00,VWS V14.01,2013-05-12 01:43:00,
2013-05-11 18:48:00,75.2,28.8,30.30,NW,322,5.8,5.8,18,0.00,,SKC,0.00,VWS V14.01,2013-05-12 01:48:00,
2013-05-11 18:53:00,74.7,25.5,30.30,NW,307,6.3,6.3,16,0.00,,SKC,0.00,VWS V14.01,2013-05-12 01:53:00,
2013-05-11 18:58:00,74.5,28.2,30.30,NW,323,6.3,6.3,18,0.00,,SKC,0.00,VWS V14.01,2013-05-12 01:58:00,
2013-05-11 19:03:00,73.9,27.8,30.30,West,278,2.7,4.9,18,0.00,,SKC,0.00,VWS V14.01,2013-05-12 02:03:00,
2013-05-11 19:08:00,73.4,27.4,30.30,West,262,5.4,5.4,18,0.00,,SKC,0.00,VWS V14.01,2013-05-12 02:08:00,
2013-05-11 19:13:00,73.0,28.4,30.30,NW,310,4.9,5.4,19,0.00,,SKC,0.00,VWS V14.01,2013-05-12 02:13:00,
2013-05-11 19:18:00,72.7,28.1,30.30,WNW,285,3.6,4.9,19,0.00,,SKC,0.00,VWS V14.01,2013-05-12 02:18:00,
2013-05-11 19:23:00,72.0,27.5,30.30,WNW,288,0.0,0.0,19,0.00,,SKC,0.00,VWS V14.01,2013-05-12 02:23:00,
2013-05-11 19:28:00,71.1,26.8,30.30,WNW,288,0.0,0.0,19,0.00,,SKC,0.00,VWS V14.01,2013-05-12 02:28:00,
2013-05-11 19:33:00,70.3,26.2,30.30,WNW,288,0.0,0.0,19,0.00,,SKC,0.00,VWS V14.01,2013-05-12 02:33:00,
2013-05-11 19:38:00,69.6,26.8,30.30,NW,323,0.0,0.0,20,0.00,,SKC,0.00,VWS V14.01,2013-05-12 02:38:00,
2013-05-11 19:43:00,69.4,26.7,30.30,NW,323,0.0,0.0,20,0.00,,SKC,0.00,VWS V14.01,2013-05-12 02:43:00,
2013-05-11 19:48:00,69.1,26.4,30.30,ESE,123,0.0,0.0,20,0.00,,SKC,0.00,VWS V14.01,2013-05-12 02:48:00,
2013-05-11 19:53:00,69.1,26.4,30.30,ESE,117,0.0,0.0,20,0.00,,SKC,0.00,VWS V14.01,2013-05-12 02:53:00,
2013-05-11 19:58:00,68.5,25.9,30.30,ESE,117,0.0,0.0,20,0.00,,SKC,0.00,VWS V14.01,2013-05-12 02:58:00,
2013-05-11 20:00:00,67.5,25.0,30.33,ENE,74,2.7,3.6,20,0.00,,SKC,0.00,VWS V14.01,2013-05-12 03:00:00,
2013-05-11 20:01:00,67.5,25.0,30.33,ESE,106,3.1,4.0,20,0.00,,SKC,0.00,VWS V14.01,2013-05-12 03:01:00,
2013-05-11 20:02:00,67.5,25.0,30.33,NNE,25,5.4,5.4,20,0.00,,SKC,0.00,VWS V14.01,2013-05-12 03:02:00,
2013-05-11 20:03:00,68.5,25.9,30.30,East,85,3.6,3.6,20,0.00,,SKC,0.00,VWS V14.01,2013-05-12 03:03:00,
2013-05-11 20:04:00,67.6,25.2,30.33,North,353,2.7,3.6,20,0.00,,SKC,0.00,VWS V14.01,2013-05-12 03:04:00,
2013-05-11 20:05:00,67.6,25.2,30.33,East,91,3.1,6.3,20,0.00,,SKC,0.00,VWS V14.01,2013-05-12 03:05:00,
2013-05-11 20:08:00,68.7,26.1,30.30,East,88,2.7,4.0,20,0.00,,SKC,0.00,VWS V14.01,2013-05-12 03:08:00,
2013-05-11 20:13:00,68.7,26.1,30.30,NE,47,3.6,3.6,20,0.00,,SKC,0.00,VWS V14.01,2013-05-12 03:13:00,
2013-05-11 20:18:00,68.2,25.6,30.30,ENE,74,0.0,0.0,20,0.00,,SKC,0.00,VWS V14.01,2013-05-12 03:18:00,
2013-05-11 20:23:00,68.0,25.5,30.30,North,8,6.3,6.3,20,0.00,,SKC,0.00,VWS V14.01,2013-05-12 03:23:00,
2013-05-11 20:28:00,68.2,25.6,30.30,East,101,2.2,3.6,20,0.00,,SKC,0.00,VWS V14.01,2013-05-12 03:28:00,
2013-05-11 20:33:00,68.2,25.6,30.30,NE,53,6.7,7.2,20,0.00,,SKC,0.00,VWS V14.01,2013-05-12 03:33:00,
2013-05-11 20:38:00,68.0,25.5,30.33,ENE,63,8.1,8.1,20,0.00,,SKC,0.00,VWS V14.01,2013-05-12 03:38:00,
2013-05-11 20:43:00,68.0,25.5,30.33,NE,44,3.1,3.1,20,0.00,,SKC,0.00,VWS V14.01,2013-05-12 03:43:00,
2013-05-11 20:48:00,67.8,25.3,30.33,NE,35,5.4,5.4,20,0.00,,SKC,0.00,VWS V14.01,2013-05-12 03:48:00,
2013-05-11 20:53:00,67.8,25.3,30.33,NE,48,6.3,6.3,20,0.00,,SKC,0.00,VWS V14.01,2013-05-12 03:53:00,
2013-05-11 20:58:00,67.6,25.2,30.33,ENE,60,0.0,0.0,20,0.00,,SKC,0.00,VWS V14.01,2013-05-12 03:58:00,
2013-05-11 21:03:00,67.6,25.2,30.33,ENE,75,2.2,3.6,20,0.00,,SKC,0.00,VWS V14.01,2013-05-12 04:03:00,
2013-05-11 21:08:00,67.8,25.3,30.33,East,80,5.8,5.8,20,0.00,,SKC,0.00,VWS V14.01,2013-05-12 04:08:00,
2013-05-11 21:13:00,68.0,25.5,30.33,East,95,5.4,5.4,20,0.00,,SKC,0.00,VWS V14.01,2013-05-12 04:13:00,
2013-05-11 21:18:00,68.0,25.5,30.33,East,100,3.6,5.4,20,0.00,,SKC,0.00,VWS V14.01,2013-05-12 04:18:00,
2013-05-11 21:23:00,67.6,25.2,30.33,ENE,74,3.6,3.6,20,0.00,,SKC,0.00,VWS V14.01,2013-05-12 04:23:00,
2013-05-11 21:28:00,67.3,24.9,30.33,East,79,3.1,3.1,20,0.00,,SKC,0.00,VWS V14.01,2013-05-12 04:28:00,
2013-05-11 21:33:00,67.1,24.7,30.33,East,97,3.1,4.0,20,0.00,,SKC,0.00,VWS V14.01,2013-05-12 04:33:00,
2013-05-11 21:38:00,67.1,24.7,30.33,East,101,4.0,4.0,20,0.00,,SKC,0.00,VWS V14.01,2013-05-12 04:38:00,
2013-05-11 21:43:00,66.9,24.6,30.33,ESE,106,3.1,3.6,20,0.00,,SKC,0.00,VWS V14.01,2013-05-12 04:43:00,
2013-05-11 21:48:00,66.4,24.1,30.33,SE,131,2.2,3.6,20,0.00,,SKC,0.00,VWS V14.01,2013-05-12 04:48:00,
2013-05-11 21:53:00,65.7,23.5,30.33,SE,132,0.0,0.0,20,0.00,,SKC,0.00,VWS V14.01,2013-05-12 04:53:00,
2013-05-11 21:58:00,64.8,22.8,30.33,SE,137,0.0,0.0,20,0.00,,SKC,0.00,VWS V14.01,2013-05-12 04:58:00,
2013-05-11 22:03:00,63.5,22.9,30.33,SE,137,0.0,0.0,21,0.00,,SKC,0.00,VWS V14.01,2013-05-12 05:03:00,
2013-05-11 22:08:00,62.6,24.3,30.33,SE,137,0.0,0.0,23,0.00,,SKC,0.00,VWS V14.01,2013-05-12 05:08:00,
2013-05-11 22:13:00,61.9,24.7,30.33,SE,137,0.0,0.0,24,0.00,,SKC,0.00,VWS V14.01,2013-05-12 05:13:00,
2013-05-11 22:18:00,61.3,24.3,30.33,SE,137,0.0,0.0,24,0.00,,SKC,0.00,VWS V14.01,2013-05-12 05:18:00,
2013-05-11 22:23:00,61.0,24.0,30.33,SE,137,0.0,0.0,24,0.00,,SKC,0.00,VWS V14.01,2013-05-12 05:23:00,
2013-05-11 22:28:00,60.4,23.5,30.33,SE,137,0.0,0.0,24,0.00,,SKC,0.00,VWS V14.01,2013-05-12 05:28:00,
2013-05-11 22:33:00,59.9,24.0,30.33,SE,137,0.0,0.0,25,0.00,,SKC,0.00,VWS V14.01,2013-05-12 05:33:00,
2013-05-11 22:38:00,60.8,23.8,30.33,SE,135,0.0,0.0,24,0.00,,SKC,0.00,VWS V14.01,2013-05-12 05:38:00,
2013-05-11 22:43:00,61.3,24.3,30.33,SE,135,0.0,0.0,24,0.00,,SKC,0.00,VWS V14.01,2013-05-12 05:43:00,
2013-05-11 22:48:00,61.3,24.3,30.33,SE,134,2.2,2.2,24,0.00,,SKC,0.00,VWS V14.01,2013-05-12 05:48:00,
2013-05-11 22:53:00,61.3,24.3,30.33,SSE,161,6.3,6.3,24,0.00,,SKC,0.00,VWS V14.01,2013-05-12 05:53:00,
2013-05-11 22:58:00,62.1,24.9,30.33,SSW,204,4.0,4.0,24,0.00,,SKC,0.00,VWS V14.01,2013-05-12 05:58:00,
2013-05-11 23:03:00,61.9,24.7,30.33,South,187,4.0,4.0,24,0.00,,SKC,0.00,VWS V14.01,2013-05-12 06:03:00,
2013-05-11 23:08:00,62.2,25.0,30.33,South,185,5.4,5.4,24,0.00,,SKC,0.00,VWS V14.01,2013-05-12 06:08:00,
2013-05-11 23:13:00,62.2,25.0,30.33,South,173,5.8,6.3,24,0.00,,SKC,0.00,VWS V14.01,2013-05-12 06:13:00,
2013-05-11 23:18:00,62.4,25.2,30.33,South,171,3.1,4.0,24,0.00,,SKC,0.00,VWS V14.01,2013-05-12 06:18:00,
2013-05-11 23:23:00,62.2,25.0,30.33,SSW,202,2.7,2.7,24,0.00,,SKC,0.00,VWS V14.01,2013-05-12 06:23:00,
2013-05-11 23:28:00,61.5,24.4,30.33,South,173,5.4,5.4,24,0.00,,SKC,0.00,VWS V14.01,2013-05-12 06:28:00,
2013-05-11 23:33:00,60.8,23.8,30.33,South,178,5.4,5.4,24,0.00,,SKC,0.00,VWS V14.01,2013-05-12 06:33:00,
2013-05-11 23:38:00,60.4,24.5,30.33,SSE,163,3.1,4.0,25,0.00,,SKC,0.00,VWS V14.01,2013-05-12 06:38:00,
2013-05-11 23:43:00,61.7,24.6,30.33,SSW,198,3.6,4.0,24,0.00,,SKC,0.00,VWS V14.01,2013-05-12 06:43:00,
2013-05-11 23:48:00,62.6,25.3,30.33,SE,140,3.6,4.0,24,0.00,,SKC,0.00,VWS V14.01,2013-05-12 06:48:00,
2013-05-11 23:53:00,63.0,25.6,30.33,SSW,193,5.8,5.8,24,0.00,,SKC,0.00,VWS V14.01,2013-05-12 06:53:00,
2013-05-11 23:58:00,63.0,25.6,30.33,SSW,202,3.6,5.8,24,0.00,,SKC,0.00,VWS V14.01,2013-05-12 06:58:00,